King of Scandinavia — OVOL2 — position and weather

sailwx.info

Track history (hours):
 
Tides and Currents Weather Stations Pressure Air Temp Water Temp Dewpoint Dewpoint Depression Visibility Wind Speed Wind Dir Waves Ship Positions

King of Scandinavia

Ship's website: http://www.dfds.co.uk/DSW/EN/OnBoard/na/KING.htm

Last reported at 2020-Jan-25 03:30 UTC. Time now 2020-Jan-25 05:31 UTC.
Position N 53°16' E 002°55'.

Length 166 m; beam 27.6 m; draft 6.2 m.

Type: Ship. MMSI: 220449000.

Date/timePositionNaut miles runAvg speedWind from/ knotsBaromVisibWave heightAir tempDewpointWater temp
2020-Jan-25 03:30N 53°16' E 002°55'8316.9
2020-Jan-24 22:35N 54°05' E 001°02'10213.4
2020-Jan-24 14:58N 54°59' W 001°27'0 0.0
2020-Jan-24 13:46N 54°59' W 001°27'0 0.0
2020-Jan-24 03:29N 54°59' W 001°27'0 0.0
2020-Jan-24 02:29N 54°59' W 001°27'0 0.0
2020-Jan-24 00:31N 54°59' W 001°27'0 0.0
2020-Jan-23 23:30N 54°59' W 001°27'0 0.0
2020-Jan-23 16:30N 54°59' W 001°27'0 0.0
2020-Jan-23 15:30N 54°59' W 001°27'0 0.0
2020-Jan-23 14:00N 54°59' W 001°27'0 0.0
2020-Jan-23 12:27N 54°59' W 001°27'0 0.0
2020-Jan-23 10:54N 54°59' W 001°27'0 0.0
2020-Jan-23 10:00N 54°59' W 001°27'0 0.0
2020-Jan-23 06:00N 54°59' W 001°27'0 0.0
2020-Jan-23 05:30N 54°59' W 001°27'0 0.0
2020-Jan-22 18:59N 54°59' W 001°27'0 0.0
2020-Jan-22 14:52N 54°59' W 001°27'0 0.0
2020-Jan-22 12:52N 54°59' W 001°27'0 0.0
2020-Jan-22 10:55N 54°59' W 001°27'0 0.0
2020-Jan-22 08:58N 54°59' W 001°27'0 0.0
2020-Jan-22 08:28N 54°59' W 001°27'0 0.0
2020-Jan-22 04:00N 54°59' W 001°27'0 0.0
2020-Jan-22 03:31N 54°59' W 001°27'0 0.0
2020-Jan-21 23:59N 54°59' W 001°27'0 0.0
2020-Jan-21 20:29N 54°59' W 001°27'0 0.0
2020-Jan-21 13:00N 54°59' W 001°27'0 0.0
2020-Jan-21 11:28N 54°59' W 001°27'0 0.0
2020-Jan-21 10:27N 54°59' W 001°27'0 0.0
2020-Jan-21 03:32N 54°59' W 001°27'0 0.0
2020-Jan-21 03:08N 54°59' W 001°27'0 0.0
2020-Jan-21 02:59N 54°59' W 001°27'0 0.0
2020-Jan-21 01:30N 54°59' W 001°27'0 0.0
2020-Jan-21 01:00N 54°59' W 001°27'0 0.0
2020-Jan-20 11:58N 54°59' W 001°27'0 0.0
2020-Jan-20 10:43N 54°59' W 001°27'0 0.0
2020-Jan-20 09:10N 54°59' W 001°27'0 0.9
2020-Jan-20 08:59N 54°60' W 001°27'26015.8
2020-Jan-19 16:30N 52°29' E 004°30'3 0.9
2020-Jan-19 13:00N 52°28' E 004°35'0 0.0
2020-Jan-19 11:00N 52°28' E 004°35'0 0.0
2020-Jan-19 10:30N 52°28' E 004°35'0 0.0
2020-Jan-19 10:00N 52°28' E 004°35'3 2.1
2020-Jan-19 08:31N 52°28' E 004°30'25316.8
2020-Jan-18 17:24N 54°58' W 001°15'7 6.8
2020-Jan-18 16:23N 54°59' W 001°27'0 0.0
2020-Jan-18 14:42N 54°59' W 001°27'0 0.0
2020-Jan-18 13:30N 54°59' W 001°27'0 0.0
2020-Jan-18 10:18N 54°59' W 001°27'0 0.0
2020-Jan-18 10:00N 54°59' W 001°27'11914.7
2020-Jan-18 01:53N 53°55' E 001°26'1415.7
2020-Jan-18 01:00N 53°47' E 001°45'11715.6
2020-Jan-17 17:30N 52°35' E 004°19'1212.3
2020-Jan-17 16:30N 52°28' E 004°35'0 0.0
2020-Jan-17 15:00N 52°28' E 004°35'0 0.0
2020-Jan-17 11:30N 52°28' E 004°35'1 0.2
2020-Jan-17 08:30N 52°28' E 004°34'2516.4
2020-Jan-17 07:00N 52°45' E 004°04'23717.6
2020-Jan-16 17:30N 54°59' W 001°27'0 0.0
2020-Jan-16 17:00N 54°59' W 001°27'0 0.0
2020-Jan-16 13:58N 54°59' W 001°27'0 0.0
2020-Jan-16 12:58N 54°59' W 001°27'0 0.0
2020-Jan-16 12:28N 54°59' W 001°27'0 0.0
2020-Jan-16 11:55N 54°59' W 001°27'0 0.0
2020-Jan-16 11:00N 54°59' W 001°27'0 0.0
2020-Jan-16 09:28N 54°59' W 001°27'3 3.2
2020-Jan-16 08:30N 55°01' W 001°23'24316.3
2020-Jan-15 17:36N 52°39' E 004°12'18 4.9
2020-Jan-15 13:58N 52°28' E 004°35'0 0.0
2020-Jan-15 12:28N 52°28' E 004°35'0 0.0
2020-Jan-15 11:28N 52°28' E 004°35'0 0.0
2020-Jan-15 09:28N 52°28' E 004°35'0 0.0
2020-Jan-15 08:30N 52°28' E 004°35'  
Track history (hours):
 
Tides and Currents Weather Stations Pressure Air Temp Water Temp Dewpoint Dewpoint Depression Visibility Wind Speed Wind Dir Waves Ship Positions

King of Scandinavia

Ship's website: http://www.dfds.co.uk/DSW/EN/OnBoard/na/KING.htm

Last reported at 2020-Jan-25 03:30 UTC. Time now 2020-Jan-25 05:31 UTC.
Position N 53°16' E 002°55'.

Length 166 m; beam 27.6 m; draft 6.2 m.

Type: Ship. MMSI: 220449000.

Date/timePositionNaut miles runAvg speedWind from/ knotsBaromVisibWave heightAir tempDewpointWater temp
2020-Jan-25 03:30N 53°16' E 002°55'8316.9
2020-Jan-24 22:35N 54°05' E 001°02'10213.4
2020-Jan-24 14:58N 54°59' W 001°27'0 0.0
2020-Jan-24 13:46N 54°59' W 001°27'0 0.0
2020-Jan-24 03:29N 54°59' W 001°27'0 0.0
2020-Jan-24 02:29N 54°59' W 001°27'0 0.0
2020-Jan-24 00:31N 54°59' W 001°27'0 0.0
2020-Jan-23 23:30N 54°59' W 001°27'0 0.0
2020-Jan-23 16:30N 54°59' W 001°27'0 0.0
2020-Jan-23 15:30N 54°59' W 001°27'0 0.0
2020-Jan-23 14:00N 54°59' W 001°27'0 0.0
2020-Jan-23 12:27N 54°59' W 001°27'0 0.0
2020-Jan-23 10:54N 54°59' W 001°27'0 0.0
2020-Jan-23 10:00N 54°59' W 001°27'0 0.0
2020-Jan-23 06:00N 54°59' W 001°27'0 0.0
2020-Jan-23 05:30N 54°59' W 001°27'0 0.0
2020-Jan-22 18:59N 54°59' W 001°27'0 0.0
2020-Jan-22 14:52N 54°59' W 001°27'0 0.0
2020-Jan-22 12:52N 54°59' W 001°27'0 0.0
2020-Jan-22 10:55N 54°59' W 001°27'0 0.0
2020-Jan-22 08:58N 54°59' W 001°27'0 0.0
2020-Jan-22 08:28N 54°59' W 001°27'0 0.0
2020-Jan-22 04:00N 54°59' W 001°27'0 0.0
2020-Jan-22 03:31N 54°59' W 001°27'0 0.0
2020-Jan-21 23:59N 54°59' W 001°27'0 0.0
2020-Jan-21 20:29N 54°59' W 001°27'0 0.0
2020-Jan-21 13:00N 54°59' W 001°27'0 0.0
2020-Jan-21 11:28N 54°59' W 001°27'0 0.0
2020-Jan-21 10:27N 54°59' W 001°27'0 0.0
2020-Jan-21 03:32N 54°59' W 001°27'0 0.0
2020-Jan-21 03:08N 54°59' W 001°27'0 0.0
2020-Jan-21 02:59N 54°59' W 001°27'0 0.0
2020-Jan-21 01:30N 54°59' W 001°27'0 0.0
2020-Jan-21 01:00N 54°59' W 001°27'0 0.0
2020-Jan-20 11:58N 54°59' W 001°27'0 0.0
2020-Jan-20 10:43N 54°59' W 001°27'0 0.0
2020-Jan-20 09:10N 54°59' W 001°27'0 0.9
2020-Jan-20 08:59N 54°60' W 001°27'26015.8
2020-Jan-19 16:30N 52°29' E 004°30'3 0.9
2020-Jan-19 13:00N 52°28' E 004°35'0 0.0
2020-Jan-19 11:00N 52°28' E 004°35'0 0.0
2020-Jan-19 10:30N 52°28' E 004°35'0 0.0
2020-Jan-19 10:00N 52°28' E 004°35'3 2.1
2020-Jan-19 08:31N 52°28' E 004°30'25316.8
2020-Jan-18 17:24N 54°58' W 001°15'7 6.8
2020-Jan-18 16:23N 54°59' W 001°27'0 0.0
2020-Jan-18 14:42N 54°59' W 001°27'0 0.0
2020-Jan-18 13:30N 54°59' W 001°27'0 0.0
2020-Jan-18 10:18N 54°59' W 001°27'0 0.0
2020-Jan-18 10:00N 54°59' W 001°27'11914.7
2020-Jan-18 01:53N 53°55' E 001°26'1415.7
2020-Jan-18 01:00N 53°47' E 001°45'11715.6
2020-Jan-17 17:30N 52°35' E 004°19'1212.3
2020-Jan-17 16:30N 52°28' E 004°35'0 0.0
2020-Jan-17 15:00N 52°28' E 004°35'0 0.0
2020-Jan-17 11:30N 52°28' E 004°35'1 0.2
2020-Jan-17 08:30N 52°28' E 004°34'2516.4
2020-Jan-17 07:00N 52°45' E 004°04'23717.6
2020-Jan-16 17:30N 54°59' W 001°27'0 0.0
2020-Jan-16 17:00N 54°59' W 001°27'0 0.0
2020-Jan-16 13:58N 54°59' W 001°27'0 0.0
2020-Jan-16 12:58N 54°59' W 001°27'0 0.0
2020-Jan-16 12:28N 54°59' W 001°27'0 0.0
2020-Jan-16 11:55N 54°59' W 001°27'0 0.0
2020-Jan-16 11:00N 54°59' W 001°27'0 0.0
2020-Jan-16 09:28N 54°59' W 001°27'3 3.2
2020-Jan-16 08:30N 55°01' W 001°23'24316.3
2020-Jan-15 17:36N 52°39' E 004°12'18 4.9
2020-Jan-15 13:58N 52°28' E 004°35'0 0.0
2020-Jan-15 12:28N 52°28' E 004°35'0 0.0
2020-Jan-15 11:28N 52°28' E 004°35'0 0.0
2020-Jan-15 09:28N 52°28' E 004°35'0 0.0
2020-Jan-15 08:30N 52°28' E 004°35'  

Dump ship's entire track history